timestamp,surface_pressure_avg,surface_temp_avg,battery_voltage,lat,long
2021-03-29 00:09:01+00:00,362.8047,1.3,13.13,47.84626,-54.09684
2021-03-29 00:19:01+00:00,352.1763,1.3,12.73,47.84626,-54.09684
2021-03-29 00:29:01+00:00,344.4729,1.3,12.73,47.84626,-54.09684
2021-03-29 00:39:01+00:00,344.228,1.3,12.73,47.84626,-54.09684
2021-03-29 00:49:01+00:00,336.103,1.3,12.73,47.84626,-54.09684
2021-03-29 00:59:01+00:00,330.733,1.3,12.73,47.84626,-54.09684
2021-03-29 01:09:01+00:00,333.4746,1.3,12.73,47.84626,-54.09684
2021-03-29 01:19:01+00:00,335.0080000000001,1.3,12.65,47.84626,-54.09684
2021-03-29 01:29:01+00:00,316.1163,1.3,12.65,47.84626,-54.09684
2021-03-29 01:39:01+00:00,298.483,1.3,12.65,47.84626,-54.09684
2021-03-29 01:49:01+00:00,298.1964,1.3,12.65,47.84626,-54.09684
2021-03-29 01:59:01+00:00,292.2264,1.3,12.65,47.84626,-54.09684
2021-03-29 02:09:01+00:00,276.4998,1.3,12.65,47.84626,-54.09684
2021-03-29 02:19:01+00:00,270.7314,1.3,12.57,47.84626,-54.09684
2021-03-29 02:29:01+00:00,270.1514,1.3,12.57,47.84626,-54.09684
2021-03-29 02:39:01+00:00,256.7498,1.3,12.57,47.84626,-54.09684
2021-03-29 02:49:01+00:00,240.5331,1.3,12.57,47.84626,-54.09684
2021-03-29 02:59:01+00:00,243.6848,1.3,12.57,47.84626,-54.09684
2021-03-29 03:09:01+00:00,243.0698,1.3,12.57,47.84626,-54.09684
2021-03-29 03:19:01+00:00,233.0714,1.3,12.57,47.84626,-54.09684
2021-03-29 03:29:01+00:00,220.6714,1.3,12.57,47.84626,-54.09684
2021-03-29 03:39:01+00:00,215.1114,1.3,12.57,47.84626,-54.09684
2021-03-29 03:49:01+00:00,203.5548,1.3,12.57,47.84626,-54.09684
2021-03-29 03:59:01+00:00,190.1931,1.3,12.57,47.84626,-54.09684
2021-03-29 04:09:01+00:00,180.7581,1.3,12.57,47.84626,-54.09684
2021-03-29 04:19:01+00:00,174.8798,1.29,12.57,47.84626,-54.09684
2021-03-29 04:29:01+00:00,172.4398,1.25,12.57,47.84626,-54.09684
2021-03-29 04:39:01+00:00,173.5198,1.2,12.57,47.84626,-54.09684
2021-03-29 04:49:01+00:00,169.2548,1.2,12.57,47.84626,-54.09684
2021-03-29 04:59:01+00:00,155.9315,1.2,12.57,47.84626,-54.09684
2021-03-29 05:09:01+00:00,149.2332,1.2,12.57,47.84626,-54.09684
2021-03-29 05:19:01+00:00,149.2832,1.2,12.57,47.84626,-54.09684
2021-03-29 05:29:01+00:00,138.8799,1.18,12.57,47.84626,-54.09684
2021-03-29 05:39:01+00:00,129.3432,1.1,12.57,47.84626,-54.09684
2021-03-29 05:49:01+00:00,135.0449,1.1,12.57,47.84626,-54.09684
2021-03-29 05:59:01+00:00,139.3132,1.1,12.57,47.84626,-54.09684
2021-03-29 06:09:01+00:00,136.5965,1.17,12.57,47.84626,-54.09684
2021-03-29 06:19:01+00:00,136.7882,1.15,12.57,47.84626,-54.09684
2021-03-29 06:29:01+00:00,145.1665,1.1,12.57,47.84626,-54.09684
2021-03-29 06:39:01+00:00,149.9282,1.16,12.57,47.84626,-54.09684
2021-03-29 06:49:01+00:00,149.3815,1.19,12.57,47.84626,-54.09684
2021-03-29 06:59:01+00:00,155.1065,1.19,12.57,47.84626,-54.09684
2021-03-29 07:09:01+00:00,158.0232,1.2,12.57,47.84626,-54.09684
2021-03-29 07:19:01+00:00,154.4482,1.2,12.57,47.84626,-54.09684
2021-03-29 07:29:01+00:00,162.1115,1.2,12.57,47.84626,-54.09684
2021-03-29 07:39:01+00:00,175.3215,1.2,12.57,47.84626,-54.09684
2021-03-29 07:49:01+00:00,182.9965,1.2,12.57,47.84626,-54.09684
2021-03-29 07:59:01+00:00,200.5031,1.2,12.57,47.84626,-54.09684
2021-03-29 08:09:01+00:00,215.5331,1.2,12.57,47.84626,-54.09684
2021-03-29 08:19:01+00:00,218.3264,1.2,12.49,47.84626,-54.09684
2021-03-29 08:29:01+00:00,222.2564,1.2,12.49,47.84626,-54.09684
2021-03-29 08:39:01+00:00,226.9065,1.16,12.49,47.84626,-54.09684
2021-03-29 08:49:01+00:00,231.9314,1.1,12.49,47.84626,-54.09684
2021-03-29 08:59:01+00:00,230.9298,1.16,12.49,47.84626,-54.09684
2021-03-29 09:09:01+00:00,231.3098,1.13,12.49,47.84626,-54.09684
2021-03-29 09:19:01+00:00,237.6364,1.1,12.49,47.84626,-54.09684
2021-03-29 09:29:01+00:00,252.5481,1.1,12.49,47.84626,-54.09684
2021-03-29 09:39:01+00:00,268.7747,1.1,12.49,47.84626,-54.09684
2021-03-29 09:49:01+00:00,283.1781,1.1,12.49,47.84626,-54.09684
2021-03-29 09:59:01+00:00,288.5497,1.12,12.49,47.84626,-54.09684
2021-03-29 10:09:01+00:00,298.0596,1.2,12.49,47.84626,-54.09684
2021-03-29 10:19:01+00:00,306.7997,1.2,12.49,47.84626,-54.09684
2021-03-29 10:29:01+00:00,317.7679,1.17,12.49,47.84626,-54.09684
2021-03-29 10:39:01+00:00,316.7214,1.12,12.49,47.84626,-54.09684
2021-03-29 10:49:01+00:00,320.6146,1.1,12.49,47.84626,-54.09684
2021-03-29 10:59:01+00:00,330.9430000000001,1.12,12.49,47.84626,-54.09684
2021-03-29 11:09:01+00:00,342.5563,1.1,12.49,47.84626,-54.09684
2021-03-29 11:19:01+00:00,350.9346,1.1,12.49,47.84626,-54.09684
2021-03-29 11:29:01+00:00,353.4446,1.1,12.49,47.84626,-54.09684
2021-03-29 11:39:01+00:00,355.2563,1.1,12.49,47.84626,-54.09684
2021-03-29 11:49:01+00:00,358.0662,1.1,12.49,47.84626,-54.09684
2021-03-29 11:59:01+00:00,358.4079,1.1,12.49,47.84626,-54.09684
2021-03-29 12:09:01+00:00,360.6329,1.1,12.49,47.84626,-54.09684
2021-03-29 12:19:01+00:00,359.6312,1.1,12.49,47.84626,-54.09684
2021-03-29 12:29:01+00:00,362.8947,1.1,12.49,47.84626,-54.09684
2021-03-29 12:39:01+00:00,359.2529,1.1,12.49,47.84626,-54.09684
2021-03-29 12:49:01+00:00,358.4213,1.1,12.49,47.84626,-54.09684
2021-03-29 12:59:01+00:00,367.5763,1.1,12.49,47.84626,-54.09684
2021-03-29 13:09:01+00:00,366.8762,1.1,12.49,47.84626,-54.09684
2021-03-29 13:19:01+00:00,351.9997,1.1,12.49,47.84626,-54.09684
2021-03-29 13:29:01+00:00,346.4413,1.1,12.49,47.84626,-54.09684
2021-03-29 13:39:01+00:00,349.9429,1.1,12.49,47.84626,-54.09684
2021-03-29 13:49:01+00:00,344.848,1.1,12.49,47.84626,-54.09684
2021-03-29 13:59:01+00:00,336.6096,1.1,12.49,47.84626,-54.09684
2021-03-29 14:09:01+00:00,335.48800000000006,1.1,12.49,47.84626,-54.09684
2021-03-29 14:19:01+00:00,337.468,1.1,12.65,47.84626,-54.09684
2021-03-29 14:29:01+00:00,335.8413,1.1,12.65,47.84626,-54.09684
2021-03-29 14:39:01+00:00,326.318,1.1,12.65,47.84626,-54.09684
2021-03-29 14:49:01+00:00,306.883,1.1,12.65,47.84626,-54.09684
2021-03-29 14:59:01+00:00,298.908,1.16,12.65,47.84626,-54.09684
2021-03-29 15:09:01+00:00,291.1297,1.19,12.65,47.84626,-54.09684
2021-03-29 15:19:01+00:00,272.5164,1.2,13.05,47.84626,-54.09684
2021-03-29 15:29:01+00:00,260.333,1.2,13.05,47.84626,-54.09684
2021-03-29 15:39:01+00:00,262.5564,1.18,13.05,47.84626,-54.09684
2021-03-29 15:49:01+00:00,257.0164,1.2,13.05,47.84626,-54.09684
2021-03-29 15:59:01+00:00,237.6047,1.2,13.05,47.84626,-54.09684
2021-03-29 16:09:01+00:00,231.0781,1.2,13.05,47.84626,-54.09684
2021-03-29 16:19:01+00:00,232.8665,1.2,13.29,47.84626,-54.09684
2021-03-29 16:29:01+00:00,223.7681,1.2,13.29,47.84626,-54.09684
2021-03-29 16:39:01+00:00,207.0464,1.28,13.29,47.84626,-54.09684
2021-03-29 16:49:01+00:00,194.5915,1.26,13.29,47.84626,-54.09684
2021-03-29 16:59:01+00:00,189.6248,1.24,13.29,47.84626,-54.09684
2021-03-29 17:09:01+00:00,184.1031,1.25,13.29,47.84626,-54.09684
2021-03-29 17:19:01+00:00,176.0448,1.28,13.13,47.84626,-54.09684
2021-03-29 17:29:01+00:00,171.3215,1.29,13.13,47.84626,-54.09684
2021-03-29 17:39:01+00:00,164.3282,1.29,13.13,47.84626,-54.09684
2021-03-29 17:49:01+00:00,161.9798,1.29,13.13,47.84626,-54.09684
2021-03-29 17:59:01+00:00,170.2248,1.29,13.13,47.84626,-54.09684
2021-03-29 18:09:01+00:00,171.0482,1.3,13.13,47.84626,-54.09684
2021-03-29 18:19:01+00:00,161.2298,1.3,12.97,47.84626,-54.09684
2021-03-29 18:29:01+00:00,164.4398,1.3,12.97,47.84626,-54.09684
2021-03-29 18:39:01+00:00,173.9015,1.3,12.97,47.84626,-54.09684
2021-03-29 18:49:01+00:00,168.9031,1.3,12.97,47.84626,-54.09684
2021-03-29 18:59:01+00:00,164.2365,1.3,12.97,47.84626,-54.09684
2021-03-29 19:09:01+00:00,175.8182,1.3,12.97,47.84626,-54.09684
2021-03-29 19:19:01+00:00,180.8264,1.3,12.81,47.84626,-54.09684
2021-03-29 19:29:01+00:00,181.6432,1.3,12.81,47.84626,-54.09684
2021-03-29 19:39:01+00:00,192.2148,1.3,12.81,47.84626,-54.09684
2021-03-29 19:49:01+00:00,203.7715,1.3,12.81,47.84626,-54.09684
2021-03-29 19:59:01+00:00,213.4681,1.32,12.81,47.84626,-54.09684
2021-03-29 20:09:01+00:00,224.8881,1.35,12.81,47.84626,-54.09684
2021-03-29 20:19:01+00:00,230.5631,1.35,12.65,47.84626,-54.09684
2021-03-29 20:29:01+00:00,237.1148,1.36,12.65,47.84626,-54.09684
2021-03-29 20:39:01+00:00,253.1765,1.36,12.65,47.84626,-54.09684
2021-03-29 20:49:01+00:00,265.2064,1.34,12.65,47.84626,-54.09684
2021-03-29 20:59:01+00:00,259.633,1.32,12.65,47.84626,-54.09684
2021-03-29 21:09:01+00:00,261.8814,1.33,12.65,47.84626,-54.09684
2021-03-29 21:19:01+00:00,273.4181,1.34,12.57,47.84626,-54.09684
2021-03-29 21:29:01+00:00,283.3181,1.33,12.57,47.84626,-54.09684
2021-03-29 21:39:01+00:00,282.3097,1.3,12.57,47.84626,-54.09684
2021-03-29 21:49:01+00:00,279.738,1.31,12.57,47.84626,-54.09684
2021-03-29 21:59:01+00:00,286.5947,1.33,12.57,47.84626,-54.09684
2021-03-29 22:09:01+00:00,290.2547,1.34,12.57,47.84626,-54.09684
2021-03-29 22:19:01+00:00,288.8298,1.37,12.57,47.84626,-54.09684
2021-03-29 22:29:01+00:00,298.2996,1.34,12.57,47.84626,-54.09684
2021-03-29 22:39:01+00:00,308.428,1.34,12.57,47.84626,-54.09684
2021-03-29 22:49:01+00:00,301.318,1.37,12.57,47.84626,-54.09684
2021-03-29 22:59:01+00:00,293.8364,1.38,12.57,47.84626,-54.09684
2021-03-29 23:09:01+00:00,309.9663,1.38,12.57,47.84626,-54.09684
2021-03-29 23:19:01+00:00,323.2729,1.37,12.49,47.84626,-54.09684
2021-03-29 23:29:01+00:00,320.0579,1.36,12.49,47.84626,-54.09684
2021-03-29 23:39:01+00:00,328.9696,1.35,12.49,47.84626,-54.09684
2021-03-29 23:49:01+00:00,341.7679,1.36,12.49,47.84626,-54.09684
2021-03-29 23:59:01+00:00,346.4713,1.36,12.49,47.84626,-54.09684
